Weather History for Wainwright, AK

Change the Weather History Date:

Tuesday, September 17, 2013

  Actual Average (PABR) Record (PABR)
Temperature  
Mean Temperature 26 °F 32 °F  
Max Temperature 28 °F 36 °F 51 °F (1991)
Min Temperature 24 °F 29 °F 12 °F (1983)
Degree Days  
Heating Degree Days 39 33  
Month to date heating degree days 519  
Since 1 July heating degree days 2073  
Cooling Degree Days 0    
Month to date cooling degree days  
Year to date cooling degree days  
Moisture  
Dew Point 22 °F    
Average Humidity 79    
Maximum Humidity 93    
Minimum Humidity 69    
Precipitation  
Precipitation 0.00 in 0.02 in 0.39 in (1938)
Month to date precipitation 0.46  
Year to date precipitation 3.51  
Snow  
Snow 0.00 in 0.20 in 1.70 in (1962)
Month to date snowfall 1.9  
Since 1 July snowfall 3.0  
Since 1 September snowfall 1.9  
Snow Depth -    
Sea Level Pressure  
Sea Level Pressure 30.17 in    
Wind  
Wind Speed 10 mph (NE)    
Max Wind Speed 17 mph    
Max Gust Speed 22 mph    
Visibility 8 miles    
Events Snow    
T = Trace of Precipitation, MM = Missing Value Source: NWS Daily Summary

Daily Weather History Graph

Daily Weather History Graph

Search for Another Location

Airport:

Trip Planner

Search our weather history database for the weather conditions in past years. The results will help you decide how hot, cold, wet, or windy it might be!

Date:

Astronomy

Sep. 17, 2013 Rise Set
Actual Time 8:01 AM AKDT 9:04 PM AKDT
Civil Twilight 6:55 AM AKDT 10:09 PM AKDT
Nautical Twilight 5:26 AM AKDT 11:36 PM AKDT
Astronomical Twilight 3:06 AM AKDT 2:01 AM AKDT
Moon 8:16 PM AKDT (9/17) 5:27 AM AKDT (9/17)
Length of Visible Light 15h 13m
Length of Day
13h 03m
Waxing Gibbous, 96% of the Moon is Illuminated
Sep 17
Waxing Gibbous
Sep 19
Full
Sep 26
Last Quarter
Oct 4
New
Oct 11
First Quarter

Hourly Weather History & Observations

Time (AKDT) Temp. Windchill Dew Point Humidity Pressure Visibility Wind Dir Wind Speed Gust Speed Precip Events Conditions
12:49 AM 24.8 °F 16.9 °F 19.4 °F 80% 30.22 in 10.0 mi NE 6.9 mph - N/A   Mostly Cloudy
12:53 AM 25.0 °F 18.1 °F 19.9 °F 81% 30.22 in 10.0 mi ENE 5.8 mph - N/A   Mostly Cloudy
1:53 AM 26.1 °F 15.6 °F 21.0 °F 81% 30.22 in 10.0 mi East 11.5 mph - N/A   Overcast
2:15 AM 26.6 °F 17.5 °F 21.2 °F 80% 30.22 in 10.0 mi East 9.2 mph - N/A   Overcast
2:53 AM 26.1 °F 15.6 °F 19.0 °F 75% 30.22 in 10.0 mi East 11.5 mph - N/A   Overcast
3:53 AM 27.0 °F 17.3 °F 19.9 °F 75% 30.21 in 10.0 mi ENE 10.4 mph - N/A   Overcast
4:53 AM 27.0 °F 16.7 °F 21.0 °F 78% 30.20 in 10.0 mi ENE 11.5 mph - N/A   Overcast
5:53 AM 27.0 °F 18.0 °F 21.0 °F 78% 30.19 in 10.0 mi ENE 9.2 mph - N/A   Overcast
6:53 AM 26.1 °F 16.2 °F 21.9 °F 84% 30.19 in 9.0 mi ENE 10.4 mph - N/A   Overcast
7:53 AM 26.1 °F 19.4 °F 21.9 °F 84% 30.19 in 9.0 mi NE 5.8 mph - N/A   Overcast
8:53 AM 26.1 °F 18.4 °F 21.9 °F 84% 30.18 in 10.0 mi ENE 6.9 mph - N/A   Overcast
9:53 AM 27.0 °F 19.5 °F 23.0 °F 85% 30.18 in 6.0 mi ENE 6.9 mph - N/A   Overcast
10:12 AM 26.6 °F 19.1 °F 23.0 °F 86% 30.17 in 9.0 mi ENE 6.9 mph - N/A   Overcast
10:48 AM 26.6 °F 19.1 °F 24.8 °F 93% 30.17 in 2.5 mi NE 6.9 mph - 0.00 in Snow Light Snow
10:53 AM 28.0 °F 18.6 °F 24.1 °F 85% 30.18 in 2.5 mi NE 10.4 mph - 0.00 in Snow Light Snow
11:53 AM 28.0 °F 21.7 °F 24.1 °F 85% 30.18 in 10.0 mi NE 5.8 mph - 0.00 in   Overcast
12:17 PM 28.4 °F 17.5 °F 24.8 °F 86% 30.17 in 4.0 mi NE 13.8 mph 18.4 mph 0.00 in Snow Light Snow
12:43 PM 28.4 °F 17.0 °F 23.0 °F 80% 30.17 in 10.0 mi NE 15.0 mph - 0.00 in   Overcast
12:53 PM 28.0 °F 15.7 °F 23.0 °F 81% 30.17 in 5.0 mi NNE 17.3 mph - 0.00 in   Haze
1:53 PM 28.0 °F 18.1 °F 23.0 °F 81% 30.17 in 10.0 mi NE 11.5 mph - N/A   Overcast
2:04 PM 28.4 °F 17.5 °F 24.8 °F 86% 30.16 in 2.5 mi NE 13.8 mph - 0.00 in Snow Light Snow
2:06 PM 28.4 °F 18.5 °F 24.8 °F 86% 30.16 in 2.0 mi NE 11.5 mph - 0.00 in Snow Light Snow
2:13 PM 28.4 °F 18.0 °F 24.8 °F 86% 30.16 in 1.0 mi NE 12.7 mph - 0.00 in Snow Light Snow
2:21 PM 28.4 °F 18.5 °F 24.8 °F 86% 30.16 in 3.0 mi NE 11.5 mph - 0.00 in Snow Light Snow
2:37 PM 28.4 °F 17.5 °F 24.8 °F 86% 30.16 in 6.0 mi NE 13.8 mph - 0.00 in   Overcast
2:53 PM 28.0 °F 16.5 °F 21.9 °F 78% 30.16 in 10.0 mi NE 15.0 mph 21.9 mph 0.00 in   Overcast
3:53 PM 28.0 °F 16.5 °F 21.9 °F 78% 30.16 in 10.0 mi NNE 15.0 mph - N/A   Overcast
4:53 PM 28.0 °F 15.7 °F 21.0 °F 75% 30.16 in 10.0 mi NNE 17.3 mph - N/A   Overcast
5:53 PM 28.0 °F 17.5 °F 19.9 °F 72% 30.16 in 10.0 mi NE 12.7 mph - N/A   Overcast
6:53 PM 28.9 °F 17.3 °F 19.9 °F 69% 30.15 in 10.0 mi NNE 16.1 mph - N/A   Overcast
7:53 PM 28.9 °F 18.2 °F 21.0 °F 72% 30.15 in 10.0 mi NE 13.8 mph - N/A   Overcast
8:00 PM 28.4 °F 17.5 °F 21.2 °F 74% 30.14 in 10.0 mi NE 13.8 mph - N/A   Overcast
8:12 PM 28.4 °F 17.0 °F 21.2 °F 74% 30.14 in 10.0 mi NNE 15.0 mph - N/A   Overcast
8:30 PM 28.4 °F 17.5 °F 21.2 °F 74% 30.14 in 10.0 mi NNE 13.8 mph - N/A   Overcast
8:53 PM 28.9 °F 18.2 °F 21.0 °F 72% 30.14 in 10.0 mi NNE 13.8 mph - N/A   Overcast
9:32 PM 28.4 °F 17.5 °F 19.4 °F 69% 30.14 in 10.0 mi NNE 13.8 mph - N/A   Overcast
9:53 PM 28.9 °F 18.6 °F 21.0 °F 72% 30.15 in 10.0 mi NNE 12.7 mph - N/A   Overcast
10:09 PM 28.4 °F 17.0 °F 21.2 °F 74% 30.15 in 10.0 mi NNE 15.0 mph - N/A   Overcast
10:53 PM 28.0 °F 16.1 °F 21.9 °F 78% 30.15 in 10.0 mi NNE 16.1 mph - N/A   Overcast
11:53 PM 28.9 °F 20.4 °F 19.9 °F 69% 30.14 in 10.0 mi NNE 9.2 mph - N/A   Overcast